Starlink 2732

operational
NORAD ID: 48646 Int'l Des: 2021-044 Owner: SPXS Country: US Constellation: starlink
LEOCIRCULARSTARLINK_TYPE

Über Starlink 2732

Beschreibung wird geladen...

Live-Position

3D-Globus wird geladen...

Nächste Überflüge

Höhenverlauf

Altitude vs Time

uPlot chart will show altitude changes over time

Zweizeiliger Elementsatz

1 48646U 21044J 25350.63539945 .00001052 00000-0 89532-4 0 9997
2 48646 53.0557 134.4622 0001281 93.4704 266.6431 15.06396220251196
Epoch: 16. Dez. 2025 • Age: 27 hours

Aktueller Status

Höhe 564.7 km
Geschwindigkeit 7.58 km/s
Subsatellitenpunkt -48.60°S, 13.48°E
Startdatum 26. Mai 2021
Alter 4.5 years
Typ internet

Technische Details

Klassifizierung Payload
Masse 260.00 kg
Trockenmasse 248.00 kg
Gesamtmasse 260.00 kg
Länge 0.20 m
Durchmesser 2.80 m
Spannweite 9.00 m
Form Box + pan
Hersteller SPXS
Bus-Typ Starlink
Phasenstatus In Orbit
Besitzer/Staat SPXS/US

Große Konstellationen

Loading constellations...